Volver al catálogo

COSMOS 1867 COOLANT

ActivoLEO
NORAD 39643·DEBRIS·🇷🇺 Russia

Lanzado Jul 10, 1987 desde Baikonur Cosmodrome

Loading…

Próximos Pases (próximas 24 horas)

TLE

ActualizadoSource: Space-Track

Época: Sep 14, 2026, 08:14 UTC

1 39643U 87060L   26257.34310611  .00000169  00000-0  95038-4 0  9992
2 39643  65.0087 111.6776 0019201 276.8079  83.0823 14.34778952650560

Sigue COSMOS 1867 COOLANT en tiempo real con AllMySat

Download on the App Store